User: anonymous   Login
Location: �quirre
(50.4736°N, 2.2351°E)
Time: 11:08:19
(UTC+00:00)
Language:

Cosmos 1766 - Orbit

View from above orbital plane
View from above orbital plane
View from above satellite
View from above satellite

Ground track
Ground track

The orbit data is extracted from the following two-line orbital elements,

1 16881U 86055A   20299.95380429 +.00000285 +00000-0 +15111-4 0  9998
2 16881 082.5056 262.5867 0015932 194.5061 165.5714 15.11127358845486
Epoch (UTC): 25 October 2020 22:53:28
Eccentricity: 0.0015932
inclination: 82.5056°
perigee height: 522 km
apogee height: 544 km
right ascension of ascending node: 262.5867°
argument of perigee: 194.5061°
revolutions per day: 15.11127358
mean anomaly at epoch: 165.5714°
orbit number at epoch: 84548

The dashed part of the orbit path shows where the satellite is in the earth's shadow,  

DLR